Chanute, KS

3:20 AM CDT on September 20, 2019 (GMT -0500)
Chanute Martin Johnson

Weather History for KCNU - August, 2019

Change the Weather History Date:

Saturday, August 17, 2019

  Actual Average Record
Temperature  
Mean Temperature 79 °F 79 °F  
Max Temperature 88 °F 90 °F 110 °F (1956)
Min Temperature 70 °F 68 °F 53 °F (1992)
Degree Days  
Heating Degree Days 0 0  
Month to date heating degree days 0 0  
Since 1 June heating degree days 0 6  
Since 1 July heating degree days 0 0  
Cooling Degree Days 14 14  
Month to date cooling degree days 254 251  
Year to date cooling degree days 1231 1125  
Since 1 June cooling degree days 1061 992  
Growing Degree Days 28 (Base 50)    
Moisture  
Dew Point 71 °F    
Average Humidity 72    
Maximum Humidity 87    
Minimum Humidity 57    
Precipitation  
Precipitation 0.08 in 0.13 in 2.55 in (1968)
Month to date precipitation 4.53 2.06  
Year to date precipitation 41.23 28.86  
Sea Level Pressure  
Sea Level Pressure 29.82 in    
Wind  
Wind Speed 10 mph (SSE)    
Max Wind Speed 22 mph    
Max Gust Speed 32 mph    
Visibility 10 miles    
Events Rain , Thunderstorm    
T = Trace of Precipitation, MM = Missing Value Source: NWS Daily Summary

Daily Weather History Graph

Daily Weather History Graph

Search for Another Location

Airport or City:

Astronomy

Aug. 17, 2019 Rise Set
Actual Time 6:39 AM CDT 8:12 PM CDT
Civil Twilight 6:11 AM CDT 8:39 PM CDT
Nautical Twilight 5:37 AM CDT 9:13 PM CDT
Astronomical Twilight 5:02 AM CDT 9:48 PM CDT
Moon 9:42 PM CDT (8/17) 8:27 AM CDT (8/17)
Length of Visible Light 14h 28m
Length of Day
13h 33m
Waning Gibbous, 96% of the Moon is Illuminated
Aug 17
Waning Gibbous
Aug 23
Last Quarter
Aug 30
New
Sep 5
First Quarter
Sep 13
Full

Hourly Weather History & Observations

Time (CDT) Temp. Heat Index Dew Point Humidity Pressure Visibility Wind Dir Wind Speed Gust Speed Precip Events Conditions
12:13 AM 77.0 °F - 72.0 °F 84% 29.83 in 10.0 mi SE 10.4 mph - N/A Thunderstorm Clear
12:28 AM 78.1 °F - 72.0 °F 81% 29.83 in 10.0 mi SSE 10.4 mph - N/A   Partly Cloudy
1:52 AM 81.0 °F 84.9 °F 71.1 °F 72% 29.73 in 10.0 mi South 12.7 mph - N/A   Clear
2:52 AM 82.0 °F 85.5 °F 69.1 °F 65% 29.79 in 10.0 mi SSW 13.8 mph 21.9 mph N/A   Clear
3:52 AM 81.0 °F 84.1 °F 69.1 °F 67% 29.78 in 10.0 mi SSW 11.5 mph - N/A   Clear
4:52 AM 80.1 °F 82.9 °F 69.1 °F 69% 29.84 in 10.0 mi NNW 11.5 mph - N/A   Clear
5:52 AM 78.1 °F - 70.0 °F 76% 29.86 in 10.0 mi ENE 8.1 mph - N/A   Clear
6:52 AM 77.0 °F - 70.0 °F 79% 29.89 in 10.0 mi East 3.5 mph - N/A   Mostly Cloudy
7:52 AM 72.0 °F - 68.0 °F 87% 29.92 in 9.0 mi NE 12.7 mph 25.3 mph 0.01 in Rain Light Rain
8:03 AM 71.1 °F - 66.9 °F 87% 29.95 in 10.0 mi NNE 13.8 mph 23.0 mph 0.01 in Rain , Thunderstorm Light Rain
8:25 AM 70.0 °F - 66.9 °F 90% 29.90 in 7.0 mi ENE 12.7 mph 21.9 mph 0.06 in Rain Light Rain
8:52 AM 71.1 °F - 66.9 °F 87% 29.91 in 10.0 mi ENE 3.5 mph - 0.06 in Rain Light Rain
9:17 AM 70.0 °F - 66.9 °F 90% 29.94 in 10.0 mi SE 9.2 mph - 0.00 in Rain , Thunderstorm Light Rain
9:52 AM 73.0 °F - 70.0 °F 90% 29.88 in 9.0 mi SSE 9.2 mph - 0.01 in Rain Light Rain
10:52 AM 73.9 °F - 69.1 °F 85% 29.86 in 10.0 mi South 12.7 mph - 0.00 in   Clear
11:52 AM 81.0 °F 84.4 °F 70.0 °F 69% 29.83 in 10.0 mi South 11.5 mph - N/A   Clear
12:52 PM 86.0 °F 91.5 °F 71.1 °F 61% 29.81 in 10.0 mi SSW 8.1 mph - N/A   Clear
1:52 PM 86.0 °F 90.7 °F 70.0 °F 59% 29.82 in 10.0 mi SW 11.5 mph - N/A   Clear
2:52 PM 84.0 °F 87.8 °F 69.1 °F 61% 29.78 in 10.0 mi South 8.1 mph - N/A   Clear
3:52 PM 82.9 °F 87.5 °F 71.1 °F 67% 29.76 in 10.0 mi South 11.5 mph - N/A   Clear
4:52 PM 82.9 °F 88.0 °F 72.0 °F 69% 29.77 in 10.0 mi South 6.9 mph - N/A   Clear
5:52 PM 86.0 °F 95.1 °F 75.0 °F 70% 29.74 in 10.0 mi South 12.7 mph - 0.00 in   Scattered Clouds
6:52 PM 87.1 °F 97.3 °F 75.9 °F 69% 29.73 in 10.0 mi SE 8.1 mph - N/A   Partly Cloudy
7:52 PM 84.0 °F 92.6 °F 75.9 °F 76% 29.73 in 10.0 mi ESE 6.9 mph - N/A   Scattered Clouds
8:52 PM 82.9 °F 90.2 °F 75.0 °F 77% 29.75 in 10.0 mi SSE 6.9 mph - N/A   Clear
9:52 PM 82.0 °F 87.9 °F 73.9 °F 76% 29.76 in 10.0 mi SE 9.2 mph - N/A   Clear
10:52 PM 82.9 °F 88.8 °F 73.0 °F 72% 29.76 in 10.0 mi SSE 12.7 mph - N/A   Clear
11:52 PM 84.0 °F 89.6 °F 72.0 °F 67% 29.75 in 10.0 mi South 17.3 mph 26.5 mph N/A   Scattered Clouds